When you browse on this site, cookies collect data to enhance your experience and personalize the content and advertising you see.
Visit our Privacy Policy to learn more. By continuing to use the site, you agree to this use of cookies and data.
  • In Czech Republic
  • List of Countries
  • For 7 days
  • Water Temperature
  • Satellite Maps
  • Weather Map
  • Weather Widgets
  • user-avatar
    Login

    Hourly Weather Weirton

    Today, 21 February, Thursday

    Time Temperature Precipitation Wind Pressure Humidity
    00:00 +7°C° 0.1 mm 3 mps 735 mmHg 98%
    01:00 +7°C° 0 mm 3 mps 736 mmHg 98%
    02:00 +5°C° 0 mm 3 mps 736 mmHg 96%
    03:00 +4°C° 0 mm 4 mps 737 mmHg 93%
    04:00 +1°C° 0 mm 4 mps 738 mmHg 90%
    05:00 +1°C° 0 mm 4 mps 739 mmHg 89%
    06:00 0°C° 0 mm 4 mps 739 mmHg 89%
    07:00 -1°C° 0 mm 4 mps 740 mmHg 88%
    08:00 0°C° 0 mm 4 mps 741 mmHg 85%
    09:00 0°C° 0 mm 4 mps 741 mmHg 83%
    10:00 +1°C° 0 mm 4 mps 742 mmHg 80%
    11:00 +1°C° 0 mm 4 mps 742 mmHg 78%
    12:00 +3°C° 0 mm 4 mps 742 mmHg 76%
    13:00 +4°C° 0 mm 4 mps 742 mmHg 74%
    14:00 +4°C° 0 mm 4 mps 742 mmHg 74%
    15:00 +4°C° 0 mm 4 mps 742 mmHg 74%
    16:00 +4°C° 0 mm 3 mps 742 mmHg 74%
    17:00 +3°C° 0 mm 3 mps 743 mmHg 79%
    18:00 +2°C° 0 mm 2 mps 743 mmHg 85%
    19:00 +1°C° 0 mm 2 mps 744 mmHg 90%
    20:00 +1°C° 0 mm 2 mps 744 mmHg 90%
    21:00 +1°C° 0 mm 2 mps 745 mmHg 90%
    22:00 +1°C° 0 mm 2 mps 745 mmHg 91%
    23:00 +1°C° 0 mm 1 mps 745 mmHg 91%

    Tomorrow, 22 February, Friday

    Time Temperature Precipitation Wind Pressure Humidity
    00:00 +1°C° 0 mm 1 mps 746 mmHg 91%
    01:00 0°C° 0 mm 1 mps 746 mmHg 91%
    02:00 0°C° 0 mm 1 mps 746 mmHg 91%
    03:00 0°C° 0 mm 1 mps 747 mmHg 92%
    04:00 -1°C° 0 mm 1 mps 747 mmHg 92%
    05:00 -1°C° 0 mm 1 mps 747 mmHg 92%
    06:00 -1°C° 0 mm 1 mps 748 mmHg 92%
    07:00 -1°C° 0 mm 1 mps 748 mmHg 92%
    08:00 0°C° 0 mm 1 mps 749 mmHg 86%
    09:00 +1°C° 0 mm 1 mps 749 mmHg 81%
    10:00 +2°C° 0 mm 1 mps 750 mmHg 75%
    11:00 +3°C° 0 mm 1 mps 749 mmHg 72%
    12:00 +4°C° 0 mm 1 mps 749 mmHg 69%
    13:00 +5°C° 0 mm 1 mps 749 mmHg 65%
    14:00 +5°C° 0 mm 1 mps 748 mmHg 67%
    15:00 +5°C° 0 mm 1 mps 748 mmHg 69%
    16:00 +5°C° 0 mm 1 mps 748 mmHg 71%
    17:00 +4°C° 0 mm 1 mps 748 mmHg 75%
    18:00 +3°C° 0 mm 1 mps 748 mmHg 80%
    19:00 +2°C° 0 mm 1 mps 749 mmHg 85%
    20:00 +1°C° 0 mm 1 mps 748 mmHg 86%
    21:00 -1°C° 0 mm 2 mps 748 mmHg 86%
    22:00 -1°C° 0 mm 2 mps 748 mmHg 87%
    23:00 -1°C° 0 mm 2 mps 748 mmHg 87%

    Day after tomorrow, 23 February, Saturday

    Time Temperature Precipitation Wind Pressure Humidity
    00:00 -1°C° 0 mm 2 mps 747 mmHg 87%
    01:00 -1°C° 0 mm 2 mps 747 mmHg 86%
    02:00 -1°C° 0 mm 2 mps 746 mmHg 87%
    03:00 -1°C° 0 mm 2 mps 746 mmHg 87%
    04:00 -1°C° 0 mm 2 mps 745 mmHg 87%
    05:00 -1°C° 0 mm 2 mps 745 mmHg 88%
    06:00 +1°C° 0 mm 2 mps 745 mmHg 88%
    07:00 +1°C° 0 mm 2 mps 744 mmHg 88%
    08:00 +2°C° 0 mm 2 mps 744 mmHg 87%
    09:00 +4°C° 0 mm 2 mps 744 mmHg 86%
    10:00 +4°C° 0 mm 3 mps 743 mmHg 85%
    11:00 +5°C° 0 mm 3 mps 743 mmHg 84%
    12:00 +8°C° 0 mm 3 mps 742 mmHg 83%
    13:00 +9°C° 0 mm 3 mps 741 mmHg 82%
    14:00 +9°C° 0 mm 3 mps 741 mmHg 83%
    15:00 +9°C° 0 mm 3 mps 740 mmHg 85%
    16:00 +8°C° 0 mm 4 mps 739 mmHg 86%
    17:00 +9°C° 0 mm 3 mps 738 mmHg 89%
    18:00 +8°C° 0 mm 3 mps 738 mmHg 91%
    19:00 +7°C° 0 mm 2 mps 737 mmHg 94%
    20:00 +7°C° 0.5 mm 3 mps 737 mmHg 94%
    21:00 +7°C° 0.5 mm 3 mps 736 mmHg 94%
    22:00 +6°C° 0.5 mm 4 mps 735 mmHg 93%
    23:00 +7°C° 0.9 mm 4 mps 734 mmHg 94%

    24 February, Sunday

    Time Temperature Precipitation Wind Pressure Humidity
    00:00 +7°C° 0.9 mm 4 mps 733 mmHg 95%
    01:00 +8°C° 0.9 mm 4 mps 731 mmHg 95%
    02:00 +9°C° 0.4 mm 5 mps 730 mmHg 95%
    03:00 +10°C° 0.4 mm 5 mps 728 mmHg 94%
    04:00 +13°C° 0.4 mm 5 mps 727 mmHg 93%
    05:00 +13°C° 0.4 mm 6 mps 726 mmHg 92%
    06:00 +14°C° 0.4 mm 6 mps 725 mmHg 90%
    07:00 +15°C° 0.4 mm 6 mps 725 mmHg 89%
    08:00 +12°C° 0.1 mm 7 mps 725 mmHg 83%
    09:00 +10°C° 0.1 mm 9 mps 725 mmHg 78%
    10:00 +8°C° 0.1 mm 10 mps 725 mmHg 73%
    11:00 +7°C° 0.1 mm 10 mps 725 mmHg 73%
    12:00 +6°C° 0.1 mm 10 mps 726 mmHg 73%
    13:00 +6°C° 0.1 mm 10 mps 727 mmHg 73%
    14:00 +5°C° 0.1 mm 10 mps 727 mmHg 72%
    15:00 +3°C° 0.1 mm 9 mps 728 mmHg 72%
    16:00 +2°C° 0.1 mm 9 mps 729 mmHg 72%
    17:00 +2°C° 0.1 mm 9 mps 729 mmHg 70%
    18:00 +2°C° 0.1 mm 8 mps 730 mmHg 68%
    19:00 +1°C° 0.1 mm 8 mps 731 mmHg 66%
    20:00 0°C° 0 mm 8 mps 731 mmHg 66%
    21:00 -1°C° 0 mm 8 mps 732 mmHg 66%
    22:00 -2°C° 0 mm 8 mps 733 mmHg 66%
    23:00 -4°C° 0 mm 8 mps 733 mmHg 66%

    25 February, Monday

    Time Temperature Precipitation Wind Pressure Humidity
    00:00 -5°C° 0 mm 8 mps 734 mmHg 67%
    01:00 -5°C° 0 mm 8 mps 735 mmHg 68%
    02:00 -6°C° 0.1 mm 8 mps 736 mmHg 67%
    03:00 -6°C° 0.1 mm 8 mps 737 mmHg 67%
    04:00 -6°C° 0.1 mm 8 mps 738 mmHg 67%
    05:00 -6°C° 0.1 mm 8 mps 739 mmHg 67%
    06:00 -6°C° 0.1 mm 8 mps 740 mmHg 67%
    07:00 -6°C° 0.1 mm 7 mps 741 mmHg 66%
    08:00 -6°C° 0 mm 7 mps 742 mmHg 63%
    09:00 -4°C° 0 mm 7 mps 743 mmHg 60%
    10:00 -4°C° 0 mm 7 mps 744 mmHg 57%
    11:00 -3°C° 0 mm 7 mps 744 mmHg 54%
    12:00 -3°C° 0 mm 7 mps 745 mmHg 51%
    13:00 -2°C° 0 mm 7 mps 745 mmHg 48%
    14:00 -2°C° 0 mm 6 mps 745 mmHg 47%
    15:00 -2°C° 0 mm 6 mps 746 mmHg 46%
    16:00 -2°C° 0 mm 6 mps 746 mmHg 45%
    17:00 -2°C° 0 mm 5 mps 746 mmHg 51%
    18:00 -2°C° 0 mm 3 mps 747 mmHg 57%
    19:00 -3°C° 0 mm 2 mps 747 mmHg 62%
    20:00 -4°C° 0 mm 2 mps 748 mmHg 64%
    21:00 -2°C° 0 mm 1 mps 748 mmHg 66%
    22:00 -3°C° 0 mm 1 mps 748 mmHg 68%
    23:00 -3°C° 0 mm 1 mps 748 mmHg 67%

    26 February, Tuesday

    Time Temperature Precipitation Wind Pressure Humidity
    00:00 -3°C° 0 mm 1 mps 748 mmHg 67%
    01:00 -3°C° 0 mm 1 mps 749 mmHg 67%
    02:00 -4°C° 0 mm 0 mps 749 mmHg 67%
    03:00 -4°C° 0 mm 0 mps 749 mmHg 67%
    04:00 -4°C° 0 mm 0 mps 749 mmHg 67%
    05:00 -4°C° 0 mm 0 mps 749 mmHg 66%
    06:00 -3°C° 0 mm 1 mps 749 mmHg 66%
    07:00 -3°C° 0 mm 1 mps 749 mmHg 65%
    08:00 -1°C° 0 mm 1 mps 749 mmHg 58%
    09:00 +1°C° 0 mm 1 mps 749 mmHg 50%
    10:00 +2°C° 0 mm 2 mps 749 mmHg 43%
    11:00 +4°C° 0 mm 2 mps 748 mmHg 41%
    12:00 +6°C° 0 mm 2 mps 747 mmHg 40%
    13:00 +7°C° 0 mm 3 mps 746 mmHg 38%
    14:00 +8°C° 0 mm 3 mps 745 mmHg 40%
    15:00 +9°C° 0 mm 3 mps 744 mmHg 42%
    16:00 +10°C° 0 mm 4 mps 743 mmHg 43%
    17:00 +8°C° 0 mm 3 mps 743 mmHg 52%
    18:00 +5°C° 0 mm 3 mps 743 mmHg 61%
    19:00 +2°C° 0 mm 3 mps 742 mmHg 70%
    20:00 +3°C° 0 mm 3 mps 742 mmHg 70%
    21:00 +3°C° 0 mm 3 mps 742 mmHg 70%
    22:00 +3°C° 0 mm 3 mps 741 mmHg 71%
    23:00 +3°C° 0 mm 3 mps 741 mmHg 73%
    Show more